This is the latest recevied weather packets stored in our database for station/object N8AMF. If no packets are shown the sender has not sent any weather packets the latest 10 day(s).
| Time | Temp. | Humidity | Pressure | Rain* | Wind** | Luminosity | Snow |
|---|---|---|---|---|---|---|---|
| 1777929681 | 23.33° C | 51% | 1001.7 hPa | 0 mm | - | 335 W/m² | - |
| 1777929379 | 23.33° C | 51% | 1002 hPa | 0 mm | - | 131 W/m² | - |
| 1777929075 | 23.89° C | 48% | 1001.9 hPa | 0 mm | - | 247 W/m² | - |
| 1777928773 | 23.89° C | 48% | 1002 hPa | 0 mm | - | 591 W/m² | - |
| 1777928469 | 24.44° C | 47% | 1002 hPa | 0 mm | - | 586 W/m² | - |
| 1777928166 | 25° C | 48% | 1002.1 hPa | 0 mm | - | 655 W/m² | - |
| 1777927864 | 24.44° C | 47% | 1002.2 hPa | 0 mm | - | 639 W/m² | - |
| 1777927562 | 23.89° C | 48% | 1002.3 hPa | 0 mm | - | 631 W/m² | - |
| 1777927261 | 23.89° C | 47% | 1002.3 hPa | 0 mm | - | 178 W/m² | - |
| 1777926959 | 23.89° C | 49% | 1002.5 hPa | 0 mm | - | 194 W/m² | - |
| 1777926656 | 23.89° C | 48% | 1002.4 hPa | 0 mm | - | 203 W/m² | - |
| 1777926351 | 24.44° C | 46% | 1002.5 hPa | 0 mm | - | 701 W/m² | - |
| 1777926048 | 23.89° C | 46% | 1002.6 hPa | 0 mm | - | 708 W/m² | - |
| 1777925745 | 23.89° C | 46% | 1002.6 hPa | 0 mm | - | 720 W/m² | - |
| 1777925443 | 23.89° C | 46% | 1002.7 hPa | 0 mm | - | 785 W/m² | - |
| 1777925139 | 23.89° C | 45% | 1002.8 hPa | 0 mm | - | 772 W/m² | - |
| 1777924836 | 23.33° C | 46% | 1003 hPa | 0 mm | - | 788 W/m² | - |
| 1777924532 | 23.89° C | 43% | 1003 hPa | 0 mm | - | 763 W/m² | - |
| 1777924229 | 23.89° C | 46% | 1002.9 hPa | 0 mm | - | 786 W/m² | - |
| 1777923925 | 23.33° C | 46% | 1003.2 hPa | 0 mm | - | 809 W/m² | - |
| 1777923620 | 23.33° C | 44% | 1003.3 hPa | 0 mm | - | 818 W/m² | - |
| 1777923318 | 23.89° C | 44% | 1003.3 hPa | 0 mm | - | 834 W/m² | - |
| 1777923017 | 23.33° C | 45% | 1003.3 hPa | 0 mm | - | 853 W/m² | - |
| 1777922714 | 23.89° C | 44% | 1003.3 hPa | 0 mm | - | 862 W/m² | - |
| 1777922412 | 23.89° C | 41% | 1003.4 hPa | 0 mm | - | 866 W/m² | - |
* Rain latest hour (hover to see other rain measurements)
** Current wind speed in m/s (hover to see current wind gust speed)